Location: Lussas
(44.6119°N, 4.4726°E)
Time: 05:34:55
(UTC+00:00)

ATLAS 5 CENTAUR R/B - Pass Details

Date: 26 November 2020
Orbit: 253 x 14244 km, 60.7° (Epoch: 18 January)

Event Time Altitude Azimuth Distance (km) Brightness Sun altitude
Exits shadow 06:00:07 11° 307° (NW) 2,079 4.1 -9.4°
Maximum altitude 06:00:54 11° 317° (NW) 1,873 4.0 -9.3°
Drops below altitude 10° 06:02:08 10° 338° (NNW) 1,692 3.9 -9.1°
Sets 06:04:46 0° 21° (NNE) 2,066 4.8 -8.6°
